Change the Weather History Date:

Friday, February 21, 2014

  Actual Average (KFLO) Record (KFLO)
Temperature  
Mean Temperature 60 °F 50 °F  
Max Temperature 73 °F 61 °F 81 °F (1997)
Min Temperature 46 °F 39 °F 21 °F (1959)
Degree Days  
Heating Degree Days 6 15  
Month to date heating degree days 363  
Since 1 July heating degree days 1965  
Cooling Degree Days 0 0  
Month to date cooling degree days 0  
Year to date cooling degree days 2  
Growing Degree Days 10 (Base 50)    
Moisture  
Dew Point 59 °F    
Average Humidity 81    
Maximum Humidity 100    
Minimum Humidity 51    
Precipitation  
Precipitation 0.20 in 0.11 in 1.04 in (1954)
Month to date precipitation 2.17  
Year to date precipitation 5.40  
Sea Level Pressure  
Sea Level Pressure 29.94 in    
Wind  
Wind Speed 10 mph (SSW)    
Max Wind Speed 17 mph    
Max Gust Speed 23 mph    
Visibility 10 miles    
Events Rain , Thunderstorm    
T = Trace of Precipitation, MM = Missing Value Source: NWS Daily Summary

Daily Weather History Graph

Daily Weather History Graph

Search for Another Location

Airport or City:

Trip Planner

Search our weather history database for the weather conditions in past years. The results will help you decide how hot, cold, wet, or windy it might be!

Date:

Astronomy

Feb. 21, 2014 Rise Set
Actual Time 6:57 AM EST 6:07 PM EST
Civil Twilight 6:32 AM EST 6:33 PM EST
Nautical Twilight 6:02 AM EST 7:02 PM EST
Astronomical Twilight 5:33 AM EST 7:31 PM EST
Moon No Moon Rise 10:37 AM EST (2/21)
Length of Visible Light 12h 01m
Length of Day
11h 10m
Waning Gibbous, 61% of the Moon is Illuminated
Feb 21
Waning Gibbous
Feb 22
Last Quarter
Mar 1
New
Mar 8
First Quarter
Mar 16
Full

Hourly Weather History & Observations

Time (EST) Temp. Dew Point Humidity Pressure Visibility Wind Dir Wind Speed Gust Speed Precip Events Conditions
12:15 AM 69.8 °F 64.4 °F 83% 30.01 in 10.0 mi South 11.5 mph - N/A   Overcast
12:35 AM 68.0 °F 64.4 °F 88% 30.00 in 10.0 mi SSE 11.5 mph - N/A   Mostly Cloudy
12:55 AM 68.0 °F 64.4 °F 88% 29.99 in 10.0 mi SSE 10.4 mph - N/A   Mostly Cloudy
1:15 AM 68.0 °F 66.2 °F 94% 29.98 in 10.0 mi South 10.4 mph - N/A   Overcast
1:35 AM 68.0 °F 64.4 °F 88% 29.98 in 10.0 mi South 12.7 mph 17.3 mph N/A   Overcast
1:55 AM 68.0 °F 64.4 °F 88% 29.99 in 10.0 mi South 9.2 mph - N/A   Overcast
2:15 AM 68.0 °F 64.4 °F 88% 29.98 in 10.0 mi South 10.4 mph - N/A   Overcast
2:35 AM 68.0 °F 64.4 °F 88% 29.98 in 10.0 mi South 9.2 mph - N/A   Overcast
2:55 AM 68.0 °F 64.4 °F 88% 29.98 in 10.0 mi South 9.2 mph - N/A   Overcast
3:15 AM 68.0 °F 64.4 °F 88% 29.98 in 10.0 mi South 10.4 mph - N/A   Overcast
3:35 AM 68.0 °F 64.4 °F 88% 29.98 in 10.0 mi South 9.2 mph - N/A   Overcast
3:55 AM 68.0 °F 64.4 °F 88% 29.97 in 10.0 mi South 9.2 mph - N/A   Overcast
4:15 AM 68.0 °F 64.4 °F 88% 29.95 in 10.0 mi South 10.4 mph - N/A   Overcast
4:35 AM 68.0 °F 64.4 °F 88% 29.95 in 10.0 mi South 11.5 mph 20.7 mph N/A   Overcast
4:55 AM 68.0 °F 64.4 °F 88% 29.93 in 10.0 mi South 10.4 mph - N/A   Overcast
5:15 AM 68.0 °F 64.4 °F 88% 29.94 in 10.0 mi South 10.4 mph 20.7 mph N/A   Overcast
5:35 AM 68.0 °F 64.4 °F 88% 29.93 in 10.0 mi South 11.5 mph 19.6 mph N/A   Overcast
5:55 AM 68.0 °F 64.4 °F 88% 29.92 in 10.0 mi South 9.2 mph 20.7 mph N/A   Overcast
6:15 AM 68.0 °F 64.4 °F 88% 29.93 in 10.0 mi South 12.7 mph 19.6 mph N/A   Overcast
6:35 AM 68.0 °F 64.4 °F 88% 29.92 in 10.0 mi South 13.8 mph 20.7 mph N/A   Overcast
6:55 AM 68.0 °F 64.4 °F 88% 29.92 in 10.0 mi South 12.7 mph 17.3 mph N/A   Overcast
7:15 AM 68.0 °F 64.4 °F 88% 29.92 in 10.0 mi South 11.5 mph 23.0 mph N/A   Overcast
7:35 AM 68.0 °F 64.4 °F 88% 29.92 in 10.0 mi South 12.7 mph 18.4 mph N/A   Overcast
7:55 AM 69.8 °F 66.2 °F 88% 29.92 in 10.0 mi South 10.4 mph 18.4 mph N/A   Overcast
8:15 AM 69.8 °F 64.4 °F 83% 29.93 in 10.0 mi South 12.7 mph 19.6 mph N/A   Mostly Cloudy
8:35 AM 69.8 °F 64.4 °F 83% 29.92 in 10.0 mi South 12.7 mph 19.6 mph N/A   Scattered Clouds
8:55 AM 69.8 °F 64.4 °F 83% 29.92 in 10.0 mi South 15.0 mph 20.7 mph N/A   Scattered Clouds
9:15 AM 71.6 °F 64.4 °F 78% 29.92 in 10.0 mi South 10.4 mph 18.4 mph N/A   Mostly Cloudy
9:35 AM 71.6 °F 64.4 °F 78% 29.91 in 10.0 mi South 11.5 mph 18.4 mph N/A   Overcast
9:55 AM 71.6 °F 64.4 °F 78% 29.92 in 10.0 mi South 15.0 mph 21.9 mph N/A   Overcast
10:15 AM 71.6 °F 64.4 °F 78% 29.91 in 10.0 mi South 9.2 mph 20.7 mph N/A   Overcast
10:35 AM 71.6 °F 64.4 °F 78% 29.90 in 10.0 mi South 13.8 mph 17.3 mph N/A   Overcast
10:55 AM 73.4 °F 64.4 °F 73% 29.89 in 10.0 mi South 12.7 mph 17.3 mph N/A Thunderstorm Overcast
11:15 AM 71.6 °F 64.4 °F 78% 29.90 in 7.0 mi SSW 16.1 mph 21.9 mph N/A Thunderstorm Overcast
11:35 AM 71.6 °F 64.4 °F 78% 29.88 in 7.0 mi SW 10.4 mph - N/A Rain , Thunderstorm Light Thunderstorms and Rain
11:55 AM 66.2 °F 64.4 °F 94% 29.90 in 3.0 mi SSW 12.7 mph 21.9 mph 0.13 in Rain , Thunderstorm Heavy Thunderstorms and Rain
12:15 PM 64.4 °F 64.4 °F 100% 29.86 in 7.0 mi South 6.9 mph - 0.03 in Rain Rain
12:35 PM 64.4 °F 64.4 °F 100% 29.86 in 7.0 mi SW 9.2 mph - 0.07 in Rain , Thunderstorm Light Thunderstorms and Rain
12:55 PM 64.4 °F 64.4 °F 100% 29.87 in 10.0 mi SW 9.2 mph - 0.07 in   Mostly Cloudy
1:15 PM 64.4 °F 64.4 °F 100% 29.87 in 10.0 mi SSW 8.1 mph - N/A   Mostly Cloudy
1:35 PM 66.2 °F 64.4 °F 94% 29.88 in 10.0 mi SSW 13.8 mph - N/A   Mostly Cloudy
1:55 PM 64.4 °F 62.6 °F 94% 29.87 in 10.0 mi SSW 11.5 mph 18.4 mph N/A   Scattered Clouds
2:15 PM 66.2 °F 62.6 °F 88% 29.86 in 10.0 mi SW 17.3 mph 23.0 mph N/A   Scattered Clouds
2:35 PM 68.0 °F 62.6 °F 83% 29.86 in 10.0 mi SW 9.2 mph 20.7 mph N/A   Clear
2:55 PM 68.0 °F 62.6 °F 83% 29.85 in 10.0 mi SW 11.5 mph 20.7 mph N/A   Mostly Cloudy
3:15 PM 68.0 °F 62.6 °F 83% 29.84 in 10.0 mi SW 12.7 mph 17.3 mph N/A   Scattered Clouds
3:35 PM 69.8 °F 60.8 °F 73% 29.85 in 10.0 mi SW 11.5 mph 23.0 mph N/A   Scattered Clouds
3:55 PM 69.8 °F 60.8 °F 73% 29.85 in 10.0 mi SW 13.8 mph 19.6 mph N/A   Scattered Clouds
4:15 PM 69.8 °F 60.8 °F 73% 29.85 in 10.0 mi SW 8.1 mph - N/A   Mostly Cloudy
4:35 PM 69.8 °F 59.0 °F 68% 29.85 in 10.0 mi SW 12.7 mph 18.4 mph N/A   Scattered Clouds
4:55 PM 69.8 °F 59.0 °F 68% 29.86 in 10.0 mi WSW 8.1 mph - N/A   Clear
5:15 PM 69.8 °F 55.4 °F 60% 29.88 in 10.0 mi WSW 8.1 mph 17.3 mph N/A   Clear
5:35 PM 69.8 °F 53.6 °F 56% 29.89 in 10.0 mi WSW 10.4 mph - N/A   Clear
5:55 PM 69.8 °F 53.6 °F 56% 29.90 in 10.0 mi SW 9.2 mph - N/A   Clear
6:15 PM 68.0 °F 50.0 °F 52% 29.92 in 10.0 mi SW 9.2 mph 16.1 mph N/A   Clear
6:35 PM 66.2 °F 50.0 °F 56% 29.94 in 10.0 mi WSW 5.8 mph - N/A   Clear
6:55 PM 64.4 °F 50.0 °F 59% 29.95 in 10.0 mi West 3.5 mph - N/A   Clear
7:15 PM 62.6 °F 51.8 °F 68% 29.97 in 10.0 mi Calm Calm - N/A   Clear
7:35 PM 60.8 °F 51.8 °F 72% 29.98 in 10.0 mi Calm Calm - N/A   Clear
7:55 PM 59.0 °F 51.8 °F 77% 29.98 in 10.0 mi Calm Calm - N/A   Clear
8:15 PM 55.4 °F 51.8 °F 88% 29.99 in 10.0 mi SW 3.5 mph - N/A   Clear
8:35 PM 55.4 °F 50.0 °F 82% 30.00 in 10.0 mi WSW 4.6 mph - N/A   Clear
8:55 PM 59.0 °F 44.6 °F 59% 30.00 in 10.0 mi West 3.5 mph - N/A   Clear
9:15 PM 57.2 °F 46.4 °F 67% 30.00 in 10.0 mi Calm Calm - N/A   Clear
9:35 PM 59.0 °F 41.0 °F 51% 30.01 in 10.0 mi West 3.5 mph - N/A   Clear
9:55 PM 57.2 °F 41.0 °F 55% 30.01 in 10.0 mi Calm Calm - N/A   Clear
10:15 PM 55.4 °F 41.0 °F 58% 30.02 in 10.0 mi Calm Calm - N/A   Clear
10:35 PM 51.8 °F 42.8 °F 71% 30.02 in 10.0 mi Calm Calm - N/A   Clear
10:55 PM 50.0 °F 44.6 °F 82% 30.02 in 10.0 mi Calm Calm - N/A   Clear
11:15 PM 50.0 °F 46.4 °F 87% 30.03 in 10.0 mi Calm Calm - N/A   Clear
11:35 PM 46.4 °F 44.6 °F 93% 30.03 in 10.0 mi Calm Calm - N/A   Clear
11:55 PM 46.4 °F 44.6 °F 93% 30.03 in 10.0 mi Calm Calm - N/A   Clear